Hourly Data Report for January 29, 2003

SHERBROOKE A
QUEBEC

45°26'00.000" N
71°41'00.000" W
241.40 m
7028124
71610
YSC

Download Data

Hourly Data (January 2003)
Hourly Data Report for January 29, 2003
TIME
LST
Temp Definition
°C
Dew Point Definition
°C
Rel Hum Definition
%
Precip. Amount Definition
mm

Wind Dir Definition
10's deg

Wind Spd Definition
km/h
Visibility Definition
km
Stn Press Definition
kPa
Hmdx Definition


Wind Chill Definition


Weather Definition


00:00 -15.8 -20.8 65     0 15.0 98.71      
01:00 -15.3 -20.1 67     0 12.9 98.68     Snow
02:00 -15.0 -19.6 68     0 15.0 98.62      
03:00 -14.5 -19.0 69     0 15.0 98.63      
04:00 -13.0 -17.9 67   21 7 15.0 98.67   -18  
05:00 -12.2 -17.2 66   24 6 15.0 98.65   -16  
06:00 -12.2 -16.8 69   27 4 15.0 98.66   -15  
07:00 -12.1 -16.4 70     0 15.0 98.69      
08:00 -11.1 -15.4 71   22 6 19.3 98.70   -15 Snow
09:00 -10.1 -13.8 74   10 6 4.0 98.70   -14 Snow
10:00 -8.9 -12.8 73   28 4 4.8 98.73   -11 Snow
11:00 -7.6 -12.0 71   21 11 12.9 98.72   -13 Snow
12:00 -7.6 -12.0 71   22 11 3.2 98.69   -13 Snow
13:00 -6.6 -11.0 71   25 9 4.8 98.69   -11 Snow Showers
14:00 -6.2 -10.4 72   26 11 4.0 98.72   -11 Snow Showers
15:00 -6.4 -10.1 75   23 11 2.4 98.79   -11 Snow Showers
16:00 -6.4 -9.5 79   27 7 2.4 98.87   -10 Snow
17:00 -6.6 -10.2 76   26 17 12.9 98.94   -13 Snow
18:00 -7.2 -11.4 72   25 13 15.0 99.06   -13  
19:00 -8.0 -11.9 73   26 7 15.0 99.18   -12  
20:00 -10.0 -13.5 76   26 13 15.0 99.30   -16  
21:00 -11.8 -14.8 78   25 9 11.3 99.40   -17  
22:00 -12.7 -15.7 78   24 7 11.3 99.50   -17  
23:00 -14.1 -17.6 75   20 9 9.7 99.57   -20  

Notes on Data Quality.

Legend

  • E = Estimated
  • M = Missing
  • NA = Not Available*
  • [empty] = Indicates an unobserved value
Date modified: